Location: Township of Marena
(38.1747°N, 99.6798°W)
Time: 02:50:29
(UTC+00:00)

GPS 2-04 Rocket1 - Pass Details

Date: 26 October 2020
Orbit: 418 x 545 km, 35.6° (Epoch: 24 November)

Event Time Altitude Azimuth Distance (km) Brightness Sun altitude
Rises 01:21:59 0° 221° (SW) 2,648 6.9 -19.3°
Reaches altitude 10° 01:24:34 10° 206° (SSW) 1,778 5.7 -19.8°
Enters shadow 01:27:22 22° 163° (SSE) 1,221 4.4 -20.4°
